User: anonymous   Login
Location: Central Coast NSW, Australia
(33.2407°S, 151.4316°E)
Time: 22:37:50
(UTC+11:00)
Language:

EO-88 - Orbit

View from above orbital plane
View from above orbital plane
View from above satellite
View from above satellite

Ground track
Ground track

The orbit data is extracted from the following two-line orbital elements,

1 42017U 17008BX  19049.71265171 +.00001286 +00000-0 +54189-4 0  9991
2 42017 097.4181 117.9829 0005173 220.4122 139.6732 15.25151962111632
Epoch (UTC): 18 February 2019 17:06:13
Eccentricity: 0.0005173
inclination: 97.4181°
perigee height: 487 km
apogee height: 494 km
right ascension of ascending node: 117.9829°
argument of perigee: 220.4122°
revolutions per day: 15.25151962
mean anomaly at epoch: 139.6732°
orbit number at epoch: 11163

The dashed part of the orbit path shows where the satellite is in the earth's shadow,  

DLR